Year,Month,Day,Hour,Minute,Value (Times are PST for temperature in C)
2008,07,07,00,00,13.70
2008,07,07,00,01,13.70
2008,07,07,00,02,13.70
2008,07,07,00,03,13.70
2008,07,07,00,04,13.70
2008,07,07,00,05,13.70
2008,07,07,00,06,13.70
2008,07,07,00,07,13.70
2008,07,07,00,08,13.60
2008,07,07,00,09,13.60
2008,07,07,00,10,13.60
2008,07,07,00,11,13.60
2008,07,07,00,12,13.50
2008,07,07,00,13,13.50
2008,07,07,00,14,13.50
2008,07,07,00,15,13.50
2008,07,07,00,16,13.50
2008,07,07,00,17,13.50
2008,07,07,00,18,13.50
2008,07,07,00,19,13.40
2008,07,07,00,20,13.40
2008,07,07,00,21,13.40
2008,07,07,00,22,13.40
2008,07,07,00,23,13.40
2008,07,07,00,24,13.40
2008,07,07,00,25,13.40
2008,07,07,00,26,13.40
2008,07,07,00,27,13.40
2008,07,07,00,28,13.40
2008,07,07,00,29,13.40
2008,07,07,00,30,13.40
2008,07,07,00,31,13.40
2008,07,07,00,32,13.40
2008,07,07,00,33,13.40
2008,07,07,00,34,13.50
2008,07,07,00,35,13.50
2008,07,07,00,36,13.50
2008,07,07,00,37,13.40
2008,07,07,00,38,13.40
2008,07,07,00,39,13.50
2008,07,07,00,40,13.50
2008,07,07,00,41,13.50
2008,07,07,00,42,13.40
2008,07,07,00,43,13.40
2008,07,07,00,44,13.40
2008,07,07,00,45,13.40
2008,07,07,00,46,13.40
2008,07,07,00,47,13.40
2008,07,07,00,48,13.40
2008,07,07,00,49,13.40
2008,07,07,00,50,13.40
2008,07,07,00,51,13.40
2008,07,07,00,52,13.30
2008,07,07,00,53,13.30
2008,07,07,00,54,13.30
2008,07,07,00,55,13.30
2008,07,07,00,56,13.30
2008,07,07,00,57,13.30
2008,07,07,00,58,13.30
2008,07,07,00,59,13.30
2008,07,07,01,00,13.30
2008,07,07,01,01,13.30
2008,07,07,01,02,13.30
2008,07,07,01,03,13.30
2008,07,07,01,04,13.30
2008,07,07,01,05,13.30
2008,07,07,01,06,13.20
2008,07,07,01,07,13.20
2008,07,07,01,08,13.20
2008,07,07,01,09,13.20
2008,07,07,01,10,13.10
2008,07,07,01,11,13.10
2008,07,07,01,12,13.10
2008,07,07,01,13,13.10
2008,07,07,01,14,13.00
2008,07,07,01,15,13.00
2008,07,07,01,16,13.00
2008,07,07,01,17,13.00
2008,07,07,01,18,12.90
2008,07,07,01,19,12.90
2008,07,07,01,20,12.90
2008,07,07,01,21,12.90
2008,07,07,01,22,12.90
2008,07,07,01,23,12.90
2008,07,07,01,24,12.80
2008,07,07,01,25,12.80
2008,07,07,01,26,12.80
2008,07,07,01,27,12.80
2008,07,07,01,28,12.80
2008,07,07,01,29,12.80
2008,07,07,01,30,12.80
2008,07,07,01,31,12.80
2008,07,07,01,32,12.80
2008,07,07,01,33,12.80
2008,07,07,01,34,12.80
2008,07,07,01,35,12.80
2008,07,07,01,36,12.80
2008,07,07,01,37,12.80
2008,07,07,01,38,12.80
2008,07,07,01,39,12.80
2008,07,07,01,40,12.80
2008,07,07,01,41,12.80
2008,07,07,01,42,12.70
2008,07,07,01,43,12.70
2008,07,07,01,44,12.70
2008,07,07,01,45,12.70
2008,07,07,01,46,12.70
2008,07,07,01,47,12.70
2008,07,07,01,48,12.70
2008,07,07,01,49,12.70
2008,07,07,01,50,12.70
2008,07,07,01,51,12.70
2008,07,07,01,52,12.70
2008,07,07,01,53,12.70
2008,07,07,01,54,12.70
2008,07,07,01,55,12.60
2008,07,07,01,56,12.60
2008,07,07,01,57,12.60
2008,07,07,01,58,12.60
2008,07,07,01,59,12.60
2008,07,07,02,00,12.60
2008,07,07,02,01,12.60
2008,07,07,02,02,12.60
2008,07,07,02,03,12.60
2008,07,07,02,04,12.60
2008,07,07,02,05,12.60
2008,07,07,02,06,12.50
2008,07,07,02,07,12.50
2008,07,07,02,08,12.50
2008,07,07,02,09,12.50
2008,07,07,02,10,12.50
2008,07,07,02,11,12.50
2008,07,07,02,12,12.50
2008,07,07,02,13,12.50
2008,07,07,02,14,12.50
2008,07,07,02,15,12.40
2008,07,07,02,16,12.40
2008,07,07,02,17,12.40
2008,07,07,02,18,12.40
2008,07,07,02,19,12.40
2008,07,07,02,20,12.40
2008,07,07,02,21,12.40
2008,07,07,02,22,12.40
2008,07,07,02,23,12.30
2008,07,07,02,24,12.30
2008,07,07,02,25,12.30
2008,07,07,02,26,12.30
2008,07,07,02,27,12.30
2008,07,07,02,28,12.30
2008,07,07,02,29,12.30
2008,07,07,02,30,12.30
2008,07,07,02,31,12.30
2008,07,07,02,32,12.30
2008,07,07,02,33,12.20
2008,07,07,02,34,12.20
2008,07,07,02,35,12.20
2008,07,07,02,36,12.20
2008,07,07,02,37,12.20
2008,07,07,02,38,12.10
2008,07,07,02,39,12.10
2008,07,07,02,40,12.10
2008,07,07,02,41,12.10
2008,07,07,02,42,12.10
2008,07,07,02,43,12.10
2008,07,07,02,44,12.10
2008,07,07,02,45,12.10
2008,07,07,02,46,12.10
2008,07,07,02,47,12.10
2008,07,07,02,48,12.10
2008,07,07,02,49,12.10
2008,07,07,02,50,12.00
2008,07,07,02,51,12.00
2008,07,07,02,52,12.00
2008,07,07,02,53,12.00
2008,07,07,02,54,12.00
2008,07,07,02,55,12.00
2008,07,07,02,56,12.00
2008,07,07,02,57,12.00
2008,07,07,02,58,12.00
2008,07,07,02,59,12.00
2008,07,07,03,00,11.90
2008,07,07,03,01,11.90
2008,07,07,03,02,11.90
2008,07,07,03,03,11.90
2008,07,07,03,04,11.90
2008,07,07,03,05,11.90
2008,07,07,03,06,11.90
2008,07,07,03,07,11.90
2008,07,07,03,08,11.90
2008,07,07,03,09,11.90
2008,07,07,03,10,12.00
2008,07,07,03,11,12.00
2008,07,07,03,12,12.00
2008,07,07,03,13,11.90
2008,07,07,03,14,11.90
2008,07,07,03,15,11.90
2008,07,07,03,16,11.90
2008,07,07,03,17,11.90
2008,07,07,03,18,11.90
2008,07,07,03,19,11.90
2008,07,07,03,20,11.90
2008,07,07,03,21,11.90
2008,07,07,03,22,11.80
2008,07,07,03,23,11.80
2008,07,07,03,24,11.80
2008,07,07,03,25,11.80
2008,07,07,03,26,11.80
2008,07,07,03,27,11.80
2008,07,07,03,28,11.80
2008,07,07,03,29,11.80
2008,07,07,03,30,11.80
2008,07,07,03,31,11.80
2008,07,07,03,32,11.80
2008,07,07,03,33,11.80
2008,07,07,03,34,11.80
2008,07,07,03,35,11.80
2008,07,07,03,36,11.80
2008,07,07,03,37,11.80
2008,07,07,03,38,11.80
2008,07,07,03,39,11.80
2008,07,07,03,40,11.80
2008,07,07,03,41,11.80
2008,07,07,03,42,11.80
2008,07,07,03,43,11.80
2008,07,07,03,44,11.70
2008,07,07,03,45,11.70
2008,07,07,03,46,11.70
2008,07,07,03,47,11.70
2008,07,07,03,48,11.70
2008,07,07,03,49,11.70
2008,07,07,03,50,11.70
2008,07,07,03,51,11.70
2008,07,07,03,52,11.70
2008,07,07,03,53,11.70
2008,07,07,03,54,11.70
2008,07,07,03,55,11.70
2008,07,07,03,56,11.70
2008,07,07,03,57,11.70
2008,07,07,03,58,11.70
2008,07,07,03,59,11.70
2008,07,07,04,00,11.70
2008,07,07,04,01,11.70
2008,07,07,04,02,11.70
2008,07,07,04,03,11.70
2008,07,07,04,04,11.70
2008,07,07,04,05,11.70
2008,07,07,04,06,11.70
2008,07,07,04,07,11.70
2008,07,07,04,08,11.70
2008,07,07,04,09,11.70
2008,07,07,04,10,11.70
2008,07,07,04,11,11.70
2008,07,07,04,12,11.70
2008,07,07,04,13,11.70
2008,07,07,04,14,11.60
2008,07,07,04,15,11.60
2008,07,07,04,16,11.60
2008,07,07,04,17,11.60
2008,07,07,04,18,11.60
2008,07,07,04,19,11.60
2008,07,07,04,20,11.60
2008,07,07,04,21,11.60
2008,07,07,04,22,11.60
2008,07,07,04,23,11.60
2008,07,07,04,24,11.60
2008,07,07,04,25,11.60
2008,07,07,04,26,11.50
2008,07,07,04,27,11.40
2008,07,07,04,28,11.40
2008,07,07,04,29,11.40
2008,07,07,04,30,11.40
2008,07,07,04,31,11.40
2008,07,07,04,32,11.40
2008,07,07,04,33,11.40
2008,07,07,04,34,11.40
2008,07,07,04,35,11.40
2008,07,07,04,36,11.40
2008,07,07,04,37,11.30
2008,07,07,04,38,11.30
2008,07,07,04,39,11.30
2008,07,07,04,40,11.30
2008,07,07,04,41,11.30
2008,07,07,04,42,11.30
2008,07,07,04,43,11.20
2008,07,07,04,44,11.20
2008,07,07,04,45,11.20
2008,07,07,04,46,11.20
2008,07,07,04,47,11.20
2008,07,07,04,48,11.10
2008,07,07,04,49,11.10
2008,07,07,04,50,11.10
2008,07,07,04,51,11.10
2008,07,07,04,52,11.10
2008,07,07,04,53,11.10
2008,07,07,04,54,11.10
2008,07,07,04,55,11.10
2008,07,07,04,56,11.10
2008,07,07,04,57,11.10
2008,07,07,04,58,11.10
2008,07,07,04,59,11.10
2008,07,07,05,00,11.10
2008,07,07,05,01,11.10
2008,07,07,05,02,11.10
2008,07,07,05,03,11.10
2008,07,07,05,04,11.10
2008,07,07,05,05,11.10
2008,07,07,05,06,11.10
2008,07,07,05,07,11.10
2008,07,07,05,08,11.10
2008,07,07,05,09,11.10
2008,07,07,05,10,11.00
2008,07,07,05,11,11.10
2008,07,07,05,12,11.10
2008,07,07,05,13,11.10
2008,07,07,05,14,11.10
2008,07,07,05,15,11.10
2008,07,07,05,16,11.00
2008,07,07,05,17,10.90
2008,07,07,05,18,10.90
2008,07,07,05,19,10.90
2008,07,07,05,20,10.90
2008,07,07,05,21,10.90
2008,07,07,05,22,10.90
2008,07,07,05,23,10.90
2008,07,07,05,24,10.90
2008,07,07,05,25,10.90
2008,07,07,05,26,10.90
2008,07,07,05,27,10.90
2008,07,07,05,28,10.90
2008,07,07,05,29,10.90
2008,07,07,05,30,10.90
2008,07,07,05,31,10.90
2008,07,07,05,32,10.90
2008,07,07,05,33,10.90
2008,07,07,05,34,10.90
2008,07,07,05,35,10.90
2008,07,07,05,36,10.90
2008,07,07,05,37,10.90
2008,07,07,05,38,10.90
2008,07,07,05,39,10.90
2008,07,07,05,40,10.90
2008,07,07,05,41,10.90
2008,07,07,05,42,10.90
2008,07,07,05,43,10.90
2008,07,07,05,44,10.90
2008,07,07,05,45,10.90
2008,07,07,05,46,10.90
2008,07,07,05,47,10.90
2008,07,07,05,48,10.90
2008,07,07,05,49,10.90
2008,07,07,05,50,10.90
2008,07,07,05,51,10.90
2008,07,07,05,52,10.90
2008,07,07,05,53,10.90
2008,07,07,05,54,10.90
2008,07,07,05,55,10.90
2008,07,07,05,56,10.90
2008,07,07,05,57,10.90
2008,07,07,05,58,10.90
2008,07,07,05,59,10.90
2008,07,07,06,00,10.90
2008,07,07,06,01,10.90
2008,07,07,06,02,10.90
2008,07,07,06,03,10.90
2008,07,07,06,04,10.90
2008,07,07,06,05,11.00
2008,07,07,06,06,11.10
2008,07,07,06,07,11.10
2008,07,07,06,08,11.10
2008,07,07,06,09,11.10
2008,07,07,06,10,11.10
2008,07,07,06,11,11.10
2008,07,07,06,12,11.10
2008,07,07,06,13,11.10
2008,07,07,06,14,11.20
2008,07,07,06,15,11.20
2008,07,07,06,16,11.20
2008,07,07,06,17,11.20
2008,07,07,06,18,11.20
2008,07,07,06,19,11.30
2008,07,07,06,20,11.30
2008,07,07,06,21,11.30
2008,07,07,06,22,11.30
2008,07,07,06,23,11.30
2008,07,07,06,24,11.30
2008,07,07,06,25,11.40
2008,07,07,06,26,11.40
2008,07,07,06,27,11.40
2008,07,07,06,28,11.40
2008,07,07,06,29,11.40
2008,07,07,06,30,11.40
2008,07,07,06,31,11.40
2008,07,07,06,32,11.40
2008,07,07,06,33,11.50
2008,07,07,06,34,11.60
2008,07,07,06,35,11.60
2008,07,07,06,36,11.60
2008,07,07,06,37,11.60
2008,07,07,06,38,11.60
2008,07,07,06,39,11.70
2008,07,07,06,40,11.70
2008,07,07,06,41,11.80
2008,07,07,06,42,11.80
2008,07,07,06,43,11.80
2008,07,07,06,44,11.80
2008,07,07,06,45,11.80
2008,07,07,06,46,11.90
2008,07,07,06,47,11.90
2008,07,07,06,48,11.90
2008,07,07,06,49,11.90
2008,07,07,06,50,12.00
2008,07,07,06,51,12.00
2008,07,07,06,52,12.10
2008,07,07,06,53,12.10
2008,07,07,06,54,12.10
2008,07,07,06,55,12.20
2008,07,07,06,56,12.20
2008,07,07,06,57,12.20
2008,07,07,06,58,12.30
2008,07,07,06,59,12.30
2008,07,07,07,00,12.30
2008,07,07,07,01,12.30
2008,07,07,07,02,12.30
2008,07,07,07,03,12.40
2008,07,07,07,04,12.40
2008,07,07,07,05,12.40
2008,07,07,07,06,12.50
2008,07,07,07,07,12.50
2008,07,07,07,08,12.60
2008,07,07,07,09,12.60
2008,07,07,07,10,12.70
2008,07,07,07,11,12.80
2008,07,07,07,12,12.80
2008,07,07,07,13,13.00
2008,07,07,07,14,13.10
2008,07,07,07,15,13.20
2008,07,07,07,16,13.30
2008,07,07,07,17,13.30
2008,07,07,07,18,13.30
2008,07,07,07,19,13.30
2008,07,07,07,20,13.30
2008,07,07,07,21,13.30
2008,07,07,07,22,13.30
2008,07,07,07,23,13.40
2008,07,07,07,24,13.50
2008,07,07,07,25,13.50
2008,07,07,07,26,13.70
2008,07,07,07,27,13.80
2008,07,07,07,28,13.90
2008,07,07,07,29,13.90
2008,07,07,07,30,14.00
2008,07,07,07,31,14.20
2008,07,07,07,32,14.30
2008,07,07,07,33,14.40
2008,07,07,07,34,14.50
2008,07,07,07,35,14.60
2008,07,07,07,36,14.70
2008,07,07,07,37,14.80
2008,07,07,07,38,14.80
2008,07,07,07,39,14.90
2008,07,07,07,40,15.00
2008,07,07,07,41,15.10
2008,07,07,07,42,15.00
2008,07,07,07,43,15.00
2008,07,07,07,44,14.90
2008,07,07,07,45,14.90
2008,07,07,07,46,14.90
2008,07,07,07,47,14.90
2008,07,07,07,48,14.90
2008,07,07,07,49,14.90
2008,07,07,07,50,14.90
2008,07,07,07,51,14.90
2008,07,07,07,52,15.00
2008,07,07,07,53,15.00
2008,07,07,07,54,15.00
2008,07,07,07,55,14.90
2008,07,07,07,56,14.90
2008,07,07,07,57,14.90
2008,07,07,07,58,15.00
2008,07,07,07,59,15.00
2008,07,07,08,00,15.00
2008,07,07,08,01,15.10
2008,07,07,08,02,15.10
2008,07,07,08,03,15.10
2008,07,07,08,04,15.10
2008,07,07,08,05,15.10
2008,07,07,08,06,15.10
2008,07,07,08,07,15.10
2008,07,07,08,08,15.00
2008,07,07,08,09,15.00
2008,07,07,08,10,15.00
2008,07,07,08,11,15.00
2008,07,07,08,12,15.00
2008,07,07,08,13,15.10
2008,07,07,08,14,15.20
2008,07,07,08,15,15.20
2008,07,07,08,16,15.20
2008,07,07,08,17,15.20
2008,07,07,08,18,15.30
2008,07,07,08,19,15.30
2008,07,07,08,20,15.30
2008,07,07,08,21,15.30
2008,07,07,08,22,15.30
2008,07,07,08,23,15.30
2008,07,07,08,24,15.30
2008,07,07,08,25,15.30
2008,07,07,08,26,15.30
2008,07,07,08,27,15.30
2008,07,07,08,28,15.30
2008,07,07,08,29,15.30
2008,07,07,08,30,15.30
2008,07,07,08,31,15.30
2008,07,07,08,32,15.30
2008,07,07,08,33,15.30
2008,07,07,08,34,15.50
2008,07,07,08,35,15.50
2008,07,07,08,36,15.50
2008,07,07,08,37,15.50
2008,07,07,08,38,15.50
2008,07,07,08,39,15.50
2008,07,07,08,40,15.60
2008,07,07,08,41,15.70
2008,07,07,08,42,15.80
2008,07,07,08,43,15.80
2008,07,07,08,44,15.80
2008,07,07,08,45,15.80
2008,07,07,08,46,15.80
2008,07,07,08,47,15.90
2008,07,07,08,48,16.00
2008,07,07,08,49,16.10
2008,07,07,08,50,16.10
2008,07,07,08,51,16.10
2008,07,07,08,52,16.00
2008,07,07,08,53,15.90
2008,07,07,08,54,15.80
2008,07,07,08,55,15.90
2008,07,07,08,56,16.10
2008,07,07,08,57,16.10
2008,07,07,08,58,16.10
2008,07,07,08,59,16.10
2008,07,07,09,00,16.20
2008,07,07,09,01,16.20
2008,07,07,09,02,16.30
2008,07,07,09,03,16.40
2008,07,07,09,04,16.40
2008,07,07,09,05,16.40
2008,07,07,09,06,16.50
2008,07,07,09,07,16.40
2008,07,07,09,08,16.40
2008,07,07,09,09,16.40
2008,07,07,09,10,16.40
2008,07,07,09,11,16.30
2008,07,07,09,12,16.30
2008,07,07,09,13,16.20
2008,07,07,09,14,16.20
2008,07,07,09,15,16.30
2008,07,07,09,16,16.30
2008,07,07,09,17,16.30
2008,07,07,09,18,16.40
2008,07,07,09,19,16.40
2008,07,07,09,20,16.60
2008,07,07,09,21,16.70
2008,07,07,09,22,16.80
2008,07,07,09,23,16.90
2008,07,07,09,24,17.00
2008,07,07,09,25,17.00
2008,07,07,09,26,17.20
2008,07,07,09,27,17.30
2008,07,07,09,28,17.30
2008,07,07,09,29,17.40
2008,07,07,09,30,17.50
2008,07,07,09,31,17.50
2008,07,07,09,32,17.50
2008,07,07,09,33,17.30
2008,07,07,09,34,17.30
2008,07,07,09,35,17.30
2008,07,07,09,36,17.40
2008,07,07,09,37,17.50
2008,07,07,09,38,17.50
2008,07,07,09,39,17.50
2008,07,07,09,40,17.50
2008,07,07,09,41,17.60
2008,07,07,09,42,17.60
2008,07,07,09,43,17.50
2008,07,07,09,44,17.50
2008,07,07,09,45,17.40
2008,07,07,09,46,17.40
2008,07,07,09,47,17.40
2008,07,07,09,48,17.40
2008,07,07,09,49,17.50
2008,07,07,09,50,17.50
2008,07,07,09,51,17.60
2008,07,07,09,52,17.60
2008,07,07,09,53,17.60
2008,07,07,09,54,17.70
2008,07,07,09,55,17.70
2008,07,07,09,56,17.80
2008,07,07,09,57,17.80
2008,07,07,09,58,17.80
2008,07,07,09,59,17.80
2008,07,07,10,00,17.70
2008,07,07,10,01,17.70
2008,07,07,10,02,17.70
2008,07,07,10,03,17.70
2008,07,07,10,04,17.70
2008,07,07,10,05,17.70
2008,07,07,10,06,17.70
2008,07,07,10,07,17.80
2008,07,07,10,08,17.90
2008,07,07,10,09,17.90
2008,07,07,10,10,17.90
2008,07,07,10,11,18.00
2008,07,07,10,12,18.20
2008,07,07,10,13,18.20
2008,07,07,10,14,18.30
2008,07,07,10,15,18.40
2008,07,07,10,16,18.40
2008,07,07,10,17,18.40
2008,07,07,10,18,18.40
2008,07,07,10,19,18.40
2008,07,07,10,20,18.40
2008,07,07,10,21,18.50
2008,07,07,10,22,18.60
2008,07,07,10,23,18.60
2008,07,07,10,24,18.70
2008,07,07,10,25,18.70
2008,07,07,10,26,18.70
2008,07,07,10,27,18.60
2008,07,07,10,28,18.50
2008,07,07,10,29,18.40
2008,07,07,10,30,18.30
2008,07,07,10,31,18.30
2008,07,07,10,32,18.40
2008,07,07,10,33,18.30
2008,07,07,10,34,18.30
2008,07,07,10,35,18.20
2008,07,07,10,36,18.20
2008,07,07,10,37,18.30
2008,07,07,10,38,18.30
2008,07,07,10,39,18.30
2008,07,07,10,40,18.40
2008,07,07,10,41,18.50
2008,07,07,10,42,18.60
2008,07,07,10,43,18.70
2008,07,07,10,44,18.70
2008,07,07,10,45,18.70
2008,07,07,10,46,18.50
2008,07,07,10,47,18.30
2008,07,07,10,48,18.10
2008,07,07,10,49,17.90
2008,07,07,10,50,17.90
2008,07,07,10,51,17.90
2008,07,07,10,52,17.90
2008,07,07,10,53,18.00
2008,07,07,10,54,17.90
2008,07,07,10,55,17.90
2008,07,07,10,56,18.00
2008,07,07,10,57,18.10
2008,07,07,10,58,18.20
2008,07,07,10,59,18.40
2008,07,07,11,00,18.50
2008,07,07,11,01,18.60
2008,07,07,11,02,18.60
2008,07,07,11,03,18.70
2008,07,07,11,04,18.70
2008,07,07,11,05,18.70
2008,07,07,11,06,18.70
2008,07,07,11,07,18.70
2008,07,07,11,08,18.60
2008,07,07,11,09,18.60
2008,07,07,11,10,18.60
2008,07,07,11,11,18.60
2008,07,07,11,12,18.60
2008,07,07,11,13,18.60
2008,07,07,11,14,18.60
2008,07,07,11,15,18.70
2008,07,07,11,16,18.60
2008,07,07,11,17,18.60
2008,07,07,11,18,18.60
2008,07,07,11,19,18.60
2008,07,07,11,20,18.50
2008,07,07,11,21,18.50
2008,07,07,11,22,18.60
2008,07,07,11,23,18.80
2008,07,07,11,24,18.90
2008,07,07,11,25,18.90
2008,07,07,11,26,18.90
2008,07,07,11,27,19.00
2008,07,07,11,28,19.10
2008,07,07,11,29,19.10
2008,07,07,11,30,19.10
2008,07,07,11,31,18.90
2008,07,07,11,32,18.90
2008,07,07,11,33,19.00
2008,07,07,11,34,19.10
2008,07,07,11,35,19.10
2008,07,07,11,36,19.10
2008,07,07,11,37,19.10
2008,07,07,11,38,19.10
2008,07,07,11,39,19.10
2008,07,07,11,40,19.10
2008,07,07,11,41,19.10
2008,07,07,11,42,19.10
2008,07,07,11,43,19.20
2008,07,07,11,44,19.20
2008,07,07,11,45,19.30
2008,07,07,11,46,19.30
2008,07,07,11,47,19.30
2008,07,07,11,48,19.40
2008,07,07,11,49,19.30
2008,07,07,11,50,19.40
2008,07,07,11,51,19.30
2008,07,07,11,52,19.20
2008,07,07,11,53,19.20
2008,07,07,11,54,19.10
2008,07,07,11,55,19.20
2008,07,07,11,56,19.40
2008,07,07,11,57,19.30
2008,07,07,11,58,19.40
2008,07,07,11,59,19.30
2008,07,07,12,00,19.40
2008,07,07,12,01,19.30
2008,07,07,12,02,19.20
2008,07,07,12,03,19.10
2008,07,07,12,04,18.90
2008,07,07,12,05,18.90
2008,07,07,12,06,18.90
2008,07,07,12,07,18.90
2008,07,07,12,08,19.10
2008,07,07,12,09,19.10
2008,07,07,12,10,19.10
2008,07,07,12,11,19.10
2008,07,07,12,12,19.10
2008,07,07,12,13,19.00
2008,07,07,12,14,18.90
2008,07,07,12,15,19.00
2008,07,07,12,16,19.10
2008,07,07,12,17,19.30
2008,07,07,12,18,19.50
2008,07,07,12,19,19.50
2008,07,07,12,20,19.50
2008,07,07,12,21,19.70
2008,07,07,12,22,19.80
2008,07,07,12,23,19.90
2008,07,07,12,24,19.80
2008,07,07,12,25,19.80
2008,07,07,12,26,19.80
2008,07,07,12,27,19.70
2008,07,07,12,28,19.60
2008,07,07,12,29,19.40
2008,07,07,12,30,19.30
2008,07,07,12,31,19.20
2008,07,07,12,32,19.30
2008,07,07,12,33,19.40
2008,07,07,12,34,19.50
2008,07,07,12,35,19.50
2008,07,07,12,36,19.60
2008,07,07,12,37,19.70
2008,07,07,12,38,19.90
2008,07,07,12,39,19.90
2008,07,07,12,40,19.90
2008,07,07,12,41,19.90
2008,07,07,12,42,19.80
2008,07,07,12,43,19.70
2008,07,07,12,44,19.80
2008,07,07,12,45,20.00
2008,07,07,12,46,20.20
2008,07,07,12,47,20.20
2008,07,07,12,48,20.40
2008,07,07,12,49,20.50
2008,07,07,12,50,20.50
2008,07,07,12,51,20.50
2008,07,07,12,52,20.40
2008,07,07,12,53,20.40
2008,07,07,12,54,20.20
2008,07,07,12,55,20.10
2008,07,07,12,56,20.00
2008,07,07,12,57,20.10
2008,07,07,12,58,20.20
2008,07,07,12,59,20.00
2008,07,07,13,00,19.90
2008,07,07,13,01,19.70
2008,07,07,13,02,19.70
2008,07,07,13,03,19.70
2008,07,07,13,04,19.90
2008,07,07,13,05,19.90
2008,07,07,13,06,19.90
2008,07,07,13,07,19.90
2008,07,07,13,08,19.80
2008,07,07,13,09,19.80
2008,07,07,13,10,19.90
2008,07,07,13,11,19.90
2008,07,07,13,12,19.90
2008,07,07,13,13,20.00
2008,07,07,13,14,20.10
2008,07,07,13,15,20.10
2008,07,07,13,16,20.20
2008,07,07,13,17,20.20
2008,07,07,13,18,20.20
2008,07,07,13,19,20.20
2008,07,07,13,20,20.20
2008,07,07,13,21,20.30
2008,07,07,13,22,20.50
2008,07,07,13,23,20.50
2008,07,07,13,24,20.50
2008,07,07,13,25,20.30
2008,07,07,13,26,20.20
2008,07,07,13,27,20.20
2008,07,07,13,28,20.10
2008,07,07,13,29,20.10
2008,07,07,13,30,20.10
2008,07,07,13,31,20.10
2008,07,07,13,32,20.20
2008,07,07,13,33,20.20
2008,07,07,13,34,20.00
2008,07,07,13,35,19.80
2008,07,07,13,36,19.60
2008,07,07,13,37,19.40
2008,07,07,13,38,19.30
2008,07,07,13,39,19.30
2008,07,07,13,40,19.50
2008,07,07,13,41,19.70
2008,07,07,13,42,19.70
2008,07,07,13,43,19.80
2008,07,07,13,44,19.70
2008,07,07,13,45,19.80
2008,07,07,13,46,19.80
2008,07,07,13,47,19.70
2008,07,07,13,48,19.70
2008,07,07,13,49,19.60
2008,07,07,13,50,19.50
2008,07,07,13,51,19.40
2008,07,07,13,52,19.40
2008,07,07,13,53,19.50
2008,07,07,13,54,19.60
2008,07,07,13,55,19.70
2008,07,07,13,56,19.80
2008,07,07,13,57,19.80
2008,07,07,13,58,19.70
2008,07,07,13,59,19.60
2008,07,07,14,00,19.70
2008,07,07,14,01,19.90
2008,07,07,14,02,19.90
2008,07,07,14,03,19.90
2008,07,07,14,04,19.90
2008,07,07,14,05,19.80
2008,07,07,14,06,19.70
2008,07,07,14,07,19.70
2008,07,07,14,08,19.70
2008,07,07,14,09,19.80
2008,07,07,14,10,19.90
2008,07,07,14,11,19.90
2008,07,07,14,12,19.90
2008,07,07,14,13,19.90
2008,07,07,14,14,19.80
2008,07,07,14,15,19.70
2008,07,07,14,16,19.60
2008,07,07,14,17,19.20
2008,07,07,14,18,19.10
2008,07,07,14,19,18.90
2008,07,07,14,20,18.80
2008,07,07,14,21,18.70
2008,07,07,14,22,18.70
2008,07,07,14,23,18.90
2008,07,07,14,24,19.10
2008,07,07,14,25,19.30
2008,07,07,14,26,19.40
2008,07,07,14,27,19.60
2008,07,07,14,28,19.70
2008,07,07,14,29,19.80
2008,07,07,14,30,20.00
2008,07,07,14,31,20.20
2008,07,07,14,32,20.20
2008,07,07,14,33,20.10
2008,07,07,14,34,20.00
2008,07,07,14,35,19.90
2008,07,07,14,36,19.80
2008,07,07,14,37,19.70
2008,07,07,14,38,19.60
2008,07,07,14,39,19.40
2008,07,07,14,40,19.30
2008,07,07,14,41,19.30
2008,07,07,14,42,19.30
2008,07,07,14,43,19.30
2008,07,07,14,44,19.50
2008,07,07,14,45,19.60
2008,07,07,14,46,19.70
2008,07,07,14,47,19.80
2008,07,07,14,48,19.70
2008,07,07,14,49,19.80
2008,07,07,14,50,19.90
2008,07,07,14,51,19.90
2008,07,07,14,52,19.80
2008,07,07,14,53,19.70
2008,07,07,14,54,19.60
2008,07,07,14,55,19.50
2008,07,07,14,56,19.30
2008,07,07,14,57,19.20
2008,07,07,14,58,19.10
2008,07,07,14,59,18.90
2008,07,07,15,00,18.80
2008,07,07,15,01,18.90
2008,07,07,15,02,18.90
2008,07,07,15,03,18.80
2008,07,07,15,04,18.90
2008,07,07,15,05,18.90
2008,07,07,15,06,18.80
2008,07,07,15,07,18.50
2008,07,07,15,08,18.30
2008,07,07,15,09,18.20
2008,07,07,15,10,18.20
2008,07,07,15,11,18.30
2008,07,07,15,12,18.20
2008,07,07,15,13,18.00
2008,07,07,15,14,17.90
2008,07,07,15,15,17.90
2008,07,07,15,16,17.70
2008,07,07,15,17,17.70
2008,07,07,15,18,17.60
2008,07,07,15,19,17.60
2008,07,07,15,20,17.60
2008,07,07,15,21,17.50
2008,07,07,15,22,17.70
2008,07,07,15,23,17.80
2008,07,07,15,24,17.80
2008,07,07,15,25,17.90
2008,07,07,15,26,18.10
2008,07,07,15,27,18.20
2008,07,07,15,28,18.10
2008,07,07,15,29,17.90
2008,07,07,15,30,17.80
2008,07,07,15,31,17.60
2008,07,07,15,32,17.50
2008,07,07,15,33,17.30
2008,07,07,15,34,17.30
2008,07,07,15,35,17.30
2008,07,07,15,36,17.30
2008,07,07,15,37,17.30
2008,07,07,15,38,17.50
2008,07,07,15,39,17.60
2008,07,07,15,40,17.60
2008,07,07,15,41,17.80
2008,07,07,15,42,17.90
2008,07,07,15,43,18.10
2008,07,07,15,44,18.30
2008,07,07,15,45,18.40
2008,07,07,15,46,18.30
2008,07,07,15,47,18.10
2008,07,07,15,48,18.10
2008,07,07,15,49,17.90
2008,07,07,15,50,17.90
2008,07,07,15,51,17.90
2008,07,07,15,52,17.80
2008,07,07,15,53,17.90
2008,07,07,15,54,17.90
2008,07,07,15,55,17.90
2008,07,07,15,56,17.90
2008,07,07,15,57,17.90
2008,07,07,15,58,17.90
2008,07,07,15,59,17.80
2008,07,07,16,00,17.70
2008,07,07,16,01,17.80
2008,07,07,16,02,17.80
2008,07,07,16,03,17.80
2008,07,07,16,04,17.90
2008,07,07,16,05,17.90
2008,07,07,16,06,17.70
2008,07,07,16,07,17.70
2008,07,07,16,08,17.80
2008,07,07,16,09,18.00
2008,07,07,16,10,18.20
2008,07,07,16,11,18.20
2008,07,07,16,12,18.30
2008,07,07,16,13,18.30
2008,07,07,16,14,18.30
2008,07,07,16,15,18.20
2008,07,07,16,16,18.10
2008,07,07,16,17,17.90
2008,07,07,16,18,17.80
2008,07,07,16,19,17.70
2008,07,07,16,20,17.50
2008,07,07,16,21,17.50
2008,07,07,16,22,17.40
2008,07,07,16,23,17.30
2008,07,07,16,24,17.20
2008,07,07,16,25,17.20
2008,07,07,16,26,17.20
2008,07,07,16,27,17.30
2008,07,07,16,28,17.30
2008,07,07,16,29,17.30
2008,07,07,16,30,17.30
2008,07,07,16,31,17.40
2008,07,07,16,32,17.50
2008,07,07,16,33,17.50
2008,07,07,16,34,17.70
2008,07,07,16,35,17.90
2008,07,07,16,36,17.90
2008,07,07,16,37,18.10
2008,07,07,16,38,18.20
2008,07,07,16,39,18.20
2008,07,07,16,40,18.20
2008,07,07,16,41,18.20
2008,07,07,16,42,18.30
2008,07,07,16,43,18.40
2008,07,07,16,44,18.50
2008,07,07,16,45,18.40
2008,07,07,16,46,18.30
2008,07,07,16,47,18.20
2008,07,07,16,48,18.20
2008,07,07,16,49,18.20
2008,07,07,16,50,18.20
2008,07,07,16,51,18.20
2008,07,07,16,52,18.10
2008,07,07,16,53,18.20
2008,07,07,16,54,18.20
2008,07,07,16,55,18.20
2008,07,07,16,56,18.20
2008,07,07,16,57,18.20
2008,07,07,16,58,18.30
2008,07,07,16,59,18.40
2008,07,07,17,00,18.50
2008,07,07,17,01,18.70
2008,07,07,17,02,18.80
2008,07,07,17,03,18.90
2008,07,07,17,04,18.80
2008,07,07,17,05,18.80
2008,07,07,17,06,18.80
2008,07,07,17,07,18.70
2008,07,07,17,08,18.60
2008,07,07,17,09,18.60
2008,07,07,17,10,18.50
2008,07,07,17,11,18.30
2008,07,07,17,12,18.20
2008,07,07,17,13,18.30
2008,07,07,17,14,18.50
2008,07,07,17,15,18.50
2008,07,07,17,16,18.60
2008,07,07,17,17,18.60
2008,07,07,17,18,18.70
2008,07,07,17,19,18.70